Location: Fort Worth, Tx
(32.7431°N, 97.3695°W)
Time: 05:29:19
(UTC-05:00)

Altair - Pass Details

Date: 10 October 2023
Orbit: 1501 x 1682 km, 47.2° (Epoch: 06 December)

Event Time Altitude Azimuth Distance (km) Brightness Sun altitude
Rises 04:40:40 0° 287° (WNW) 4,757 - -47.6°
Reaches altitude 10° 04:44:10 10° 296° (WNW) 3,801 - -46.9°
Maximum altitude 04:52:47 34° 359° (N) 2,444 - -45.3°
Exits shadow 04:52:59 34° 1° (N) 2,445 8.6 -45.3°
Drops below altitude 10° 05:01:41 10° 62° (ENE) 3,918 10.2 -43.6°
Sets 05:05:21 0° 71° (ENE) 4,920 11.0 -42.9°
